Regional Weather Roundup
Issued by NWS Green Bay, WI

Home | Current Version | Previous Version | Text Only | Print | Product List | Glossary On
Versions: 1 2 3 4 5 6 7 8 9 10 11 12 13 14 15 16 17 18 19 20 21 22 23 24 25 26 27 28 29 30 31 32 33 34 35 36 37 38 39 40 41 42 43 44 45 46 47 48 49 50
000
ASUS43 KGRB 272259
RWRGRB

NORTH-CENTRAL AND NORTHEAST WISCONSIN REGIONAL WEATHER ROUNDUP
NATIONAL WEATHER SERVICE GREEN BAY WI
600 PM CDT FRI MAR 27 2015

WIZ005-009-010>012-018-019-280000-
NORTH CENTRAL WISCONSIN

CITY           SKY/WX    TMP DP  RH WIND       PRES   REMARKS
IRONWOOD       SUNNY     25   7  46 N3        30.13S
MANITOWISH WTR NOT AVBL
ARBOR VITAE    NOT AVBL
EAGLE RIVER    NOT AVBL
LAND O LAKES   NOT AVBL
RHINELANDER    SUNNY     29   0  28 CALM      30.11S
PHILLIPS       NOT AVBL
ANTIGO         NOT AVBL
TOMAHAWK       NOT AVBL
MERRILL        NOT AVBL
$$

WIZ013-073-280000-
NORTHEAST WISCONSIN

CITY           SKY/WX    TMP DP  RH WIND       PRES   REMARKS
IRON MOUNTAIN  SUNNY     28   1  31 VRB3      30.13S
MARINETTE      SUNNY     25   9  50 E8        30.19S
$$

WIZ017-030-035>037-045-280000-
CENTRAL WISCONSIN

CITY           SKY/WX    TMP DP  RH WIND       PRES   REMARKS
MEDFORD        NOT AVBL
WAUSAU         SUNNY     31   1  28 VRB5      30.11F
MOSINEE        SUNNY     30   3  31 CALM      30.14S
MARSHFIELD     SUNNY     32   6  33 CALM      30.13F
WISC RAPIDS    SUNNY     31   3  30 CALM      30.16F
STEVENS POINT  NOT AVBL
WAUPACA        NOT AVBL
SHAWANO        NOT AVBL
CLINTONVILLE   SUNNY     32   0  25 W3        30.15S
$$

WIZ038-039-048-051-280000-
FOX VALLEY

CITY           SKY/WX    TMP DP  RH WIND       PRES   REMARKS
NWS GREEN BAY  SUNNY     29   8  41 NE6       30.18S
APPLETON       SUNNY     30   1  29 N5        30.16S
OSHKOSH        SUNNY     28   7  41 SE6       30.17S
FOND DU LAC    SUNNY     29   4  34 NE9       30.17S
$$

WIZ022-050-052-280000-
EAST CENTRAL WISCONSIN

CITY           SKY/WX    TMP DP  RH WIND       PRES   REMARKS
STURGEON BAY   SUNNY     25   3  39 N10       30.20S
MANITOWOC      NOT AVBL
SHEBOYGAN      SUNNY     25  11  55 NE12      30.18R
$$

LMZ563-521-522-541>543-280000-
LAKESHORE

STATION/POSITION TIME  TEMP    WIND        PRES    VSBY  WAVE
                       AIR SEA DIR/SP/G                  HT/PER
                 (UTC) (F)     (DEG/KT/KT) (MB)    (MI)  (FT/S)
SHEBOYGAN LKSHOR 2200   23      30/ 15/ 17 1023.5R
KEWAUNEE LKSHORE 2200   26      10/  4/  9 1021.4S
NORTHPORT PIER   2200   23     350/ 12/ 16 1022.4S
SISTER BAY LKSHO 2200   27     360/ 13/ 18   N/A
CHAMBERS ISLAND  2200   22      50/ 10/ 15 1022.4S
MENOMINEE LKSHOR 2200   23      60/ 10     1023.0R
$$



USA.gov is the U.S. government's official web portal to all federal, state and local government web resources and services.